Voltar ao catálogo

CZ-6A DEB

AtivoPO
NORAD 61355·DEBRIS·🇨🇳 China

Lançado Aug 6, 2024 de Taiyuan Satellite Launch Center

Loading…

Próximas Passagens (próximas 24 horas)

TLE

AtualizadoSource: Space-Track

Época: Sep 13, 2026, 17:33 UTC

1 61355U 24140VU  26256.73182362  .00001763  00000-0  39242-3 0  9994
2 61355  88.9783 258.3337 0084359 318.4678  41.0140 14.54350544107555

Acompanhe CZ-6A DEB em tempo real com AllMySat

Download on the App Store